RH
70 81 88 94 95 90 87 86 85 87 90 93 94 95 94 88 84 83 82 82 81 80 79 75 71 67 64 63 60 58 55 52 49 45 41 38 36 40 57 80 92 94
87 92 92 89 87 87 89 91 93 93 95 97 95 91 87 83 81 83 84 85 84 85 87 86 81 73 64 60 59 57 56 51 47 47 44 39 40 45 50 61 77 87
89 88 87 83 83 91 99 100 99 97 91 86 83 85 89 90 92 95 96 94 94 95 95 92 85 75 68 67 67 64 63 67 68 71 72 67 62 61 53 52 66 82
85 86 86 85 84 90 96 97 96 91 84 79 80 89 95 94 92 91 90 92 97 97 94 91 85 77 74 76 79 73 69 78 88 93 98 96 88 80 68 61 68 80
90 92 90 89 85 84 87 88 87 84 83 81 81 84 86 85 85 82 76 75 83 89 90 89 85 78 73 71 73 70 62 68 82 92 100 101 99 93 79 70 74 86
94 93 91 88 85 84 85 83 81 81 81 81 80 81 82 82 82 82 75 66 65 70 76 80 80 77 71 65 65 61 56 66 84 95 99 99 102 99 82 73 78 89
93 91 88 87 86 85 84 82 82 82 82 82 83 83 83 84 83 84 84 81 76 69 66 68 70 69 67 63 63 58 62 81 96 100 101 97 97 95 82 78 83 88
92 91 89 88 88 87 87 87 88 88 88 89 89 88 88 89 89 88 89 95 97 91 82 76 70 67 68 69 72 77 85 98 101 99 101 99 97 94 86 85 92 92
94 93 92 92 91 90 91 91 93 95 96 95 94 95 94 94 95 95 96 99 101 101 100 97 90 86 89 89 91 97 99 100 100 99 101 100 99 99 93 93 99 96
96 95 96 96 93 94 94 95 97 98 98 98 98 98 99 100 100 99 100 99 94 92 91 92 96 99 101 100 99 100 101 100 100 100 100 100 101 101 98 98 99 92
99 98 98 97 96 98 99 99 100 99 99 100 99 100 100 100 100 100 102 101 95 91 84 80 88 96 97 100 101 100 100 100 99 100 101 100 100 100 100 100 99 91
101 100 99 100 100 100 100 100 100 100 101 100 99 101 100 100 101 101 101 101 98 96 90 79 78 85 89 93 96 98 99 97 96 98 100 100 100 101 100 99 100 97
100 100 100 101 100 100 100 100 101 100 100 101 100 100 100 100 101 100 100 101 98 97 95 85 76 75 80 83 84 86 88 89 92 94 95 98 100 101 100 99 99 99
101 101 101 101 100 101 101 100 100 101 100 100 100 100 101 100 100 100 100 100 100 98 97 94 84 72 70 73 74 74 74 78 83 87 90 93 97 100 101 100 100 99
101 100 100 101 101 100 101 100 100 101 100 100 100 100 100 100 100 100 100 100 101 100 99 100 95 81 70 67 66 64 65 69 74 78 81 83 88 98 100 98 100 101
101 101 101 101 101 100 100 101 100 100 100 100 100 100 100 100 100 100 100 100 100 100 100 101 99 94 87 80 73 65 60 60 65 71 76 75 76 89 98 97 98 101
101 101 101 100 101 101 100 100 100 100 101 100 100 101 100 100 101 100 100 101 100 100 101 100 99 99 99 97 92 85 74 65 61 62 68 71 69 77 92 97 97 99
101 100 101 101 101 100 100 100 101 100 100 101 100 100 100 100 101 100 100 100 100 100 100 100 101 100 100 100 100 99 96 89 78 67 63 67 68 70 80 90 95 96
101 100 101 101 100 101 100 100 100 100 100 100 100 100 100 100 100 100 100 100 100 101 100 100 101 100 100 101 99 100 101 100 97 86 70 63 65 68 72 79 87 91
101 101 101 102 101 100 100 100 100 100 100 100 100 101 100 100 101 100 100 101 100 100 100 100 100 100 100 100 100 100 100 99 101 99 84 67 61 64 65 69 78 84
101 100 100 102 102 101 101 101 100 100 101 100 100 100 100 100 100 100 100 100 101 100 100 100 101 101 100 100 100 100 101 100 98 96 87 70 59 59 59 61 69 77
100 99 99 100 101 101 101 100 100 101 101 100 100 100 101 100 100 101 101 100 100 100 100 98 97 98 100 101 100 100 100 101 100 95 86 71 58 55 54 56 63 70
100 100 99 98 98 99 100 100 100 101 100 100 101 100 100 101 100 99 100 100 101 100 101 98 93 92 95 97 100 101 99 99 101 100 95 84 69 58 52 51 57 64
102 101 100 99 98 98 100 100 100 101 100 100 101 101 101 101 101 99 98 98 98 97 99 100 92 86 88 92 96 101 100 100 100 100 100 98 92 83 71 59 53 55
103 101 100 100 100 99 100 100 100 100 100 100 100 101 101 101 101 100 96 93 95 98 100 101 94 84 83 86 90 96 100 101 100 100 100 100 100 100 96 82 67 56
103 102 101 101 101 100 99 100 101 100 100 100 100 100 101 101 100 99 92 87 89 93 94 98 99 91 85 83 84 88 96 101 100 99 101 101 99 100 101 98 91 82
Wind_Speed
37 32 29 25 24 27 27 26 24 23 23 23 24 26 28 30 32 33 34 33 32 32 31 30 31 33 33 33 34 35 35 36 36 36 36 36 36 38 41 39 36 36
29 27 27 26 25 24 24 24 24 24 26 27 29 31 32 32 30 26 26 27 28 27 27 27 29 31 34 35 35 35 35 35 35 35 35 36 36 37 41 43 40 37
28 26 24 24 22 19 21 21 20 24 28 30 31 28 25 24 23 21 21 22 23 24 25 27 29 31 32 32 33 33 33 31 30 29 30 32 34 35 39 42 41 39
27 23 21 22 22 21 23 21 20 22 26 27 25 21 18 19 22 24 26 26 25 26 27 28 29 31 31 31 30 31 30 29 27 27 28 30 31 33 36 38 39 40
23 21 22 24 26 25 24 24 23 23 23 22 22 21 21 22 23 27 32 31 30 29 29 29 30 31 32 32 33 33 32 31 29 28 29 30 30 32 34 34 36 38
22 21 22 23 24 22 22 23 23 23 23 23 23 22 23 23 24 27 30 31 31 31 31 30 30 30 32 33 33 34 33 30 28 27 28 30 30 30 31 32 34 36
23 23 22 22 22 22 23 23 23 23 23 23 22 22 23 23 24 24 25 25 25 27 28 29 29 29 30 30 30 30 29 27 27 26 27 30 30 30 30 31 33 34
24 23 22 23 23 24 23 22 22 22 21 21 21 21 21 21 21 22 21 19 18 19 21 24 25 25 24 24 24 24 23 24 26 27 27 27 27 28 29 31 32 33
24 23 24 24 24 23 23 22 22 20 19 19 18 18 18 18 18 19 19 18 17 18 18 19 20 20 19 20 21 21 23 25 26 27 26 23 22 25 28 30 31 32
25 25 24 25 24 23 23 23 22 20 19 18 18 17 17 17 18 18 19 20 21 22 23 22 21 21 19 19 21 22 25 26 27 28 26 22 21 24 26 28 30 33
26 26 25 26 25 25 25 24 23 22 21 21 21 20 19 19 19 20 21 22 23 25 25 24 25 25 24 23 24 25 26 27 27 28 26 21 20 21 23 25 27 32
27 26 27 27 26 26 26 26 25 24 23 23 22 21 21 21 21 21 22 23 23 24 24 25 26 28 28 28 28 27 28 28 29 29 27 23 19 18 21 23 24 27
27 27 28 27 27 27 27 26 26 25 24 23 22 22 22 22 23 23 23 22 22 22 23 24 26 28 30 31 30 30 30 30 30 30 28 24 20 18 21 22 21 22
28 29 30 29 29 28 27 27 26 25 24 23 23 22 22 22 22 22 21 21 21 21 21 23 24 26 28 29 30 31 32 32 31 32 31 27 22 20 20 19 20 21
31 32 32 32 31 30 28 28 27 26 25 23 23 22 21 20 19 19 19 19 18 18 19 20 22 23 24 25 27 29 32 32 32 32 33 31 26 22 21 22 22 21
34 34 35 34 33 31 29 28 27 25 24 23 22 21 20 18 17 16 16 16 16 16 16 17 18 19 18 19 21 24 28 31 33 33 33 34 31 26 23 24 24 20
35 35 35 34 32 31 30 28 26 25 24 23 22 20 18 16 15 15 13 13 14 14 14 14 15 14 14 14 16 18 22 27 31 34 34 35 36 32 26 24 23 20
36 36 35 34 33 31 30 28 26 25 24 23 21 19 17 15 14 14 13 12 12 12 11 11 10 9 11 12 12 14 17 21 26 31 34 36 38 36 31 26 23 21
37 36 34 34 33 31 29 27 26 24 23 21 20 18 17 16 15 14 13 13 12 12 12 11 8 5 6 9 11 12 14 18 23 27 31 36 39 39 35 30 26 23
36 36 35 34 33 32 30 27 26 24 22 21 20 19 18 17 16 15 14 14 13 13 12 10 7 5 5 5 8 10 12 16 22 24 28 34 39 41 39 35 30 25
35 34 34 33 33 32 29 26 25 23 22 22 20 19 19 18 17 17 15 15 14 13 12 10 7 6 4 3 5 8 10 13 18 21 23 29 35 39 39 37 33 29
33 33 32 32 32 31 28 26 25 23 23 23 21 19 18 17 17 17 16 16 13 13 14 13 10 8 6 4 6 10 13 17 20 21 21 21 26 33 37 37 35 32
32 32 31 30 30 30 29 27 25 24 23 24 23 20 17 16 17 16 16 16 14 13 15 15 13 12 10 8 8 9 12 15 16 20 22 19 17 22 30 34 35 34
30 30 29 29 29 29 29 27 26 24 24 24 24 21 17 16 18 17 14 14 14 13 14 16 16 14 12 10 10 10 9 10 11 12 16 19 16 14 18 25 31 33
28 27 26 27 28 27 27 27 25 25 25 24 23 21 18 17 20 19 16 14 13 13 13 15 17 16 13 11 10 11 10 7 8 9 10 14 18 16 14 15 20 24
26 26 24 24 25 26 25 24 23 24 24 23 22 20 18 18 21 21 19 17 15 13 13 14 16 16 14 11 10 12 12 9 7 7 6 7 13 16 17 16 16 18
Wind_Direction
309 307 304 301 299 298 297 296 292 287 283 279 274 274 279 284 284 281 278 276 275 275 275 272 265 264 265 265 266 267 269 270 269 269 266 263 259 251 244 243 244 246
310 307 305 304 302 300 296 290 285 282 282 282 282 282 285 288 288 284 279 276 275 273 272 269 265 265 266 266 267 267 269 270 270 270 267 262 259 252 246 243 242 244
313 310 309 308 306 302 298 292 285 287 292 293 292 289 287 283 278 273 268 265 263 260 259 259 261 264 267 267 267 267 268 269 270 269 267 264 261 254 247 244 241 242
315 312 310 308 305 303 300 298 295 296 297 296 293 289 285 282 280 278 272 265 259 258 257 258 260 262 264 264 264 264 263 262 262 264 265 265 263 257 250 245 241 241
314 312 309 305 304 303 300 298 299 297 296 294 290 288 285 285 286 285 281 273 266 263 261 260 261 261 262 262 260 260 261 259 258 262 263 263 263 260 253 244 240 240
315 313 312 309 308 308 304 302 300 298 296 294 291 288 286 285 285 286 285 281 274 268 266 265 265 264 263 263 261 259 258 256 258 261 262 262 262 261 252 241 237 239
318 316 315 315 313 310 307 304 302 300 298 295 293 290 288 287 284 284 285 284 278 272 268 267 267 267 267 265 263 259 255 255 259 259 259 260 261 260 251 238 236 240
320 319 318 316 314 312 309 306 303 301 299 296 294 290 289 287 285 285 286 286 283 276 272 270 268 267 267 264 261 257 254 255 254 253 256 257 255 256 250 238 236 241
321 320 319 317 316 314 311 309 306 303 300 297 294 291 288 286 284 284 284 283 280 274 272 267 262 266 269 262 256 252 250 249 247 249 254 253 247 248 246 238 237 240
322 321 320 318 317 315 312 312 309 306 303 299 296 294 289 286 284 282 280 278 273 268 266 258 252 258 261 252 245 244 244 246 246 249 253 250 243 244 243 239 239 240
324 323 322 320 318 317 314 313 311 308 306 302 299 296 293 289 285 282 280 280 277 272 268 260 251 251 252 247 244 244 245 246 246 249 252 250 243 239 239 240 242 242
326 325 323 322 320 318 316 315 313 310 307 304 302 298 294 291 287 285 285 284 282 278 272 263 254 249 249 248 245 244 245 245 246 249 251 251 246 238 235 238 243 245
326 327 326 324 323 322 320 319 317 313 310 307 304 301 297 295 294 295 294 290 284 278 272 267 259 252 249 248 246 244 244 244 245 249 251 251 248 239 232 233 238 244
327 331 333 333 334 333 331 331 329 325 321 318 316 313 310 307 305 304 301 296 289 283 276 270 264 257 252 250 248 245 244 244 246 249 253 253 248 243 240 238 235 237
334 338 341 342 342 342 341 341 339 335 333 332 330 326 322 318 314 311 307 301 295 289 283 276 270 264 258 254 252 246 244 245 246 248 253 253 250 244 242 243 240 232
342 344 345 346 347 347 346 345 343 341 341 339 337 334 331 327 323 320 316 310 305 298 290 282 277 274 269 262 257 250 245 245 246 246 248 251 251 246 238 238 239 229
346 347 347 348 349 349 349 348 346 347 346 344 343 342 338 336 334 333 330 323 315 308 300 292 285 283 278 268 260 253 247 246 246 244 243 245 247 245 240 237 235 227
349 348 349 350 351 352 351 351 351 351 351 349 349 349 347 346 346 345 346 342 333 328 325 318 308 295 281 269 261 253 247 246 248 245 242 240 242 242 241 240 237 229
349 348 350 351 353 354 354 354 355 354 354 354 355 357 356 357 357 355 357 356 350 347 348 349 353 337 300 280 266 256 249 247 248 248 242 238 239 240 239 240 241 236
349 348 349 351 354 356 355 356 356 355 357 358 359 1 -0 1 3 1 360 358 355 350 343 346 2 4 338 307 276 262 254 247 246 248 244 238 237 238 238 238 240 240
349 348 349 352 355 356 356 356 356 357 360 359 359 1 0 1 3 2 359 357 354 345 332 327 339 344 335 332 310 291 276 261 253 251 247 240 236 236 237 237 237 239
350 348 348 352 354 354 356 357 359 0 0 358 358 -0 0 1 3 2 1 358 355 347 336 328 330 331 319 312 314 304 295 286 274 261 254 248 238 234 235 235 235 237
350 348 347 350 352 353 355 357 359 -0 359 356 356 358 1 3 2 0 359 356 354 352 346 338 333 330 320 307 296 296 309 314 297 269 255 253 247 235 233 234 234 235
350 348 348 348 349 352 353 353 355 356 357 356 355 356 360 3 2 359 355 351 349 349 347 338 331 328 320 305 285 281 306 340 338 300 266 256 256 246 234 233 234 236
349 348 348 347 347 349 350 350 351 353 354 354 353 354 357 1 3 0 356 353 351 350 349 338 327 323 320 307 284 273 280 299 316 315 290 262 258 259 251 239 231 230
349 348 348 347 345 345 347 349 350 351 351 350 350 352 357 3 4 1 356 355 355 353 353 348 334 326 323 316 292 269 265 269 273 276 276 257 248 249 252 249 242 233